TimeCST,TemperatureF,Dew PointF,Humidity,Sea Level PressureIn,VisibilityMPH,Wind Direction,Wind SpeedMPH,Gust SpeedMPH,PrecipitationIn,Events,Conditions,WindDirDegrees,DateUTC
12:53 AM,37.0,25.0,62,30.16,10.0,South,8.1,-,N/A,,Clear,190,2012-12-14 06:53:00
1:53 AM,39.0,25.0,57,30.16,10.0,South,9.2,-,N/A,,Clear,190,2012-12-14 07:53:00
2:53 AM,37.9,25.0,60,30.15,10.0,South,10.4,-,N/A,,Clear,180,2012-12-14 08:53:00
3:53 AM,37.0,25.0,62,30.15,10.0,South,8.1,-,N/A,,Clear,190,2012-12-14 09:53:00
4:53 AM,37.0,25.0,62,30.13,10.0,South,11.5,-,N/A,,Clear,180,2012-12-14 10:53:00
5:53 AM,37.9,25.0,60,30.14,10.0,South,10.4,-,N/A,,Clear,180,2012-12-14 11:53:00
6:53 AM,37.9,25.0,60,30.15,10.0,South,11.5,-,N/A,,Clear,180,2012-12-14 12:53:00
7:53 AM,39.9,25.0,55,30.15,10.0,South,12.7,-,N/A,,Clear,190,2012-12-14 13:53:00
8:53 AM,44.1,26.1,49,30.13,10.0,South,15.0,-,N/A,,Clear,180,2012-12-14 14:53:00
9:53 AM,46.9,26.1,44,30.14,10.0,South,13.8,-,N/A,,Clear,180,2012-12-14 15:53:00
10:53 AM,52.0,25.0,35,30.12,10.0,SSW,15.0,21.9,N/A,,Clear,200,2012-12-14 16:53:00
11:53 AM,53.1,26.1,35,30.09,10.0,South,15.0,-,N/A,,Clear,190,2012-12-14 17:53:00
12:53 PM,54.0,28.0,37,30.06,10.0,South,10.4,-,N/A,,Partly Cloudy,180,2012-12-14 18:53:00
1:53 PM,54.0,28.9,38,30.02,10.0,South,12.7,-,N/A,,Scattered Clouds,170,2012-12-14 19:53:00
2:53 PM,54.0,28.9,38,30.00,10.0,SSE,11.5,-,N/A,,Overcast,160,2012-12-14 20:53:00
3:53 PM,54.0,28.9,38,29.98,10.0,SSE,12.7,-,N/A,,Overcast,160,2012-12-14 21:53:00
4:53 PM,54.0,30.0,40,29.96,10.0,SSE,10.4,-,N/A,,Overcast,160,2012-12-14 22:53:00
5:53 PM,54.0,28.9,38,29.95,10.0,SSE,9.2,-,N/A,,Overcast,150,2012-12-14 23:53:00
6:53 PM,54.0,28.9,38,29.94,10.0,SSE,11.5,-,N/A,,Overcast,150,2012-12-15 00:53:00
7:53 PM,53.1,28.0,38,29.93,10.0,SSE,12.7,-,N/A,,Partly Cloudy,160,2012-12-15 01:53:00
8:53 PM,48.9,34.0,56,29.91,10.0,South,10.4,-,0.00,Rain,Light Rain,170,2012-12-15 02:53:00
9:07 PM,48.2,35.6,62,29.90,10.0,SSE,12.7,-,0.00,,Overcast,160,2012-12-15 03:07:00
9:46 PM,50.0,33.8,54,29.87,10.0,SSE,20.7,-,0.00,,Mostly Cloudy,160,2012-12-15 03:46:00
9:53 PM,48.9,33.1,54,29.88,10.0,SSE,20.7,26.5,0.00,,Scattered Clouds,160,2012-12-15 03:53:00
10:53 PM,45.0,39.0,80,29.88,7.0,South,17.3,21.9,0.06,Rain,Rain,170,2012-12-15 04:53:00
11:53 PM,43.0,39.9,89,29.81,3.0,SSE,17.3,27.6,0.20,Rain,Rain,150,2012-12-15 05:53:00